TimeCDT,TemperatureF,Dew PointF,Humidity,Sea Level PressureIn,VisibilityMPH,Wind Direction,Wind SpeedMPH,Gust SpeedMPH,PrecipitationIn,Events,Conditions,WindDirDegrees,DateUTC
12:16 AM,57.7,50.9,78,29.95,10.0,Calm,Calm,-,N/A,,Clear,0,2013-09-25 05:16:00
12:36 AM,56.7,50.9,81,29.95,10.0,Calm,Calm,-,N/A,,Clear,0,2013-09-25 05:36:00
12:56 AM,54.9,49.1,81,29.96,10.0,Calm,Calm,-,N/A,,Clear,0,2013-09-25 05:56:00
1:16 AM,53.2,49.1,86,29.96,10.0,Calm,Calm,-,N/A,,Clear,0,2013-09-25 06:16:00
1:36 AM,53.1,48.9,86,29.96,10.0,Calm,Calm,-,N/A,,Clear,0,2013-09-25 06:36:00
1:56 AM,53.2,48.9,85,29.96,10.0,Calm,Calm,-,N/A,,Clear,0,2013-09-25 06:56:00
2:16 AM,51.8,47.8,86,29.96,10.0,Calm,Calm,-,N/A,,Clear,0,2013-09-25 07:16:00
2:36 AM,52.9,48.7,86,29.96,10.0,Calm,Calm,-,N/A,,Clear,0,2013-09-25 07:36:00
2:56 AM,53.4,49.1,85,29.96,10.0,Calm,Calm,-,N/A,,Clear,0,2013-09-25 07:56:00
3:16 AM,54.0,49.5,85,29.96,10.0,Calm,Calm,-,N/A,,Clear,0,2013-09-25 08:16:00
3:36 AM,53.1,48.7,85,29.96,10.0,Calm,Calm,-,N/A,,Clear,0,2013-09-25 08:36:00
3:56 AM,51.6,47.5,86,29.96,10.0,Calm,Calm,-,N/A,,Clear,0,2013-09-25 08:56:00
4:16 AM,50.7,46.9,87,29.96,10.0,Calm,Calm,-,N/A,,Clear,0,2013-09-25 09:16:00
4:36 AM,51.4,47.3,86,29.97,10.0,Calm,Calm,-,N/A,,Clear,0,2013-09-25 09:36:00
4:56 AM,51.4,47.1,85,29.97,10.0,Calm,Calm,-,N/A,,Clear,0,2013-09-25 09:56:00
5:16 AM,49.5,45.9,87,29.97,10.0,Calm,Calm,-,N/A,,Clear,0,2013-09-25 10:16:00
5:36 AM,49.3,46.2,89,29.97,10.0,Calm,Calm,-,N/A,,Clear,0,2013-09-25 10:36:00
5:56 AM,51.4,48.2,89,29.97,10.0,Calm,Calm,-,N/A,,Clear,0,2013-09-25 10:56:00
6:16 AM,51.4,48.4,89,29.97,10.0,Calm,Calm,-,N/A,,Clear,0,2013-09-25 11:16:00
6:36 AM,50.9,48.2,90,29.97,10.0,Calm,Calm,-,N/A,,Clear,0,2013-09-25 11:36:00
6:55 AM,50.0,46.6,88,29.97,10.0,Calm,Calm,-,N/A,,Clear,0,2013-09-25 11:55:00
7:16 AM,48.4,45.5,90,29.97,10.0,Calm,Calm,-,N/A,,Clear,0,2013-09-25 12:16:00
7:36 AM,49.5,46.8,90,29.97,10.0,Calm,Calm,-,N/A,,Clear,0,2013-09-25 12:36:00
7:55 AM,50.4,47.5,90,29.98,7.0,Calm,Calm,-,N/A,,Clear,0,2013-09-25 12:55:00
8:16 AM,53.1,50.4,91,29.98,10.0,Calm,Calm,-,N/A,,Clear,0,2013-09-25 13:16:00
8:36 AM,55.6,51.6,87,29.98,10.0,East,3.5,-,N/A,,Clear,100,2013-09-25 13:36:00
8:55 AM,57.4,51.8,82,29.97,10.0,ESE,3.5,-,N/A,,Clear,120,2013-09-25 13:55:00
9:16 AM,59.2,52.2,78,29.98,10.0,ESE,4.6,-,N/A,,Clear,120,2013-09-25 14:16:00
9:36 AM,60.6,52.5,75,29.98,10.0,SE,4.6,-,N/A,,Clear,140,2013-09-25 14:36:00
9:55 AM,62.1,53.2,73,29.98,10.0,SE,4.6,-,N/A,,Clear,130,2013-09-25 14:55:00
10:16 AM,63.7,53.6,70,29.98,10.0,SE,4.6,-,N/A,,Clear,130,2013-09-25 15:16:00
10:36 AM,65.5,53.6,65,29.98,10.0,SE,5.8,-,N/A,,Clear,140,2013-09-25 15:36:00
10:56 AM,66.2,51.8,60,29.98,10.0,SE,9.2,-,N/A,,Clear,130,2013-09-25 15:56:00
11:16 AM,68.2,52.2,56,29.98,10.0,SE,5.8,-,N/A,,Clear,140,2013-09-25 16:16:00
11:36 AM,68.4,51.1,54,29.97,10.0,ESE,11.5,16.1,N/A,,Clear,120,2013-09-25 16:36:00
11:56 AM,68.9,50.9,53,29.97,10.0,SE,10.4,-,N/A,,Clear,130,2013-09-25 16:56:00
12:16 PM,69.1,50.4,51,29.96,10.0,SE,11.5,-,N/A,,Clear,140,2013-09-25 17:16:00
12:36 PM,69.4,50.2,50,29.96,10.0,ESE,12.7,16.1,N/A,,Clear,120,2013-09-25 17:36:00
12:56 PM,69.8,50.7,51,29.96,10.0,SE,10.4,17.3,N/A,,Clear,140,2013-09-25 17:56:00
1:16 PM,70.7,51.1,50,29.95,10.0,SSE,8.1,-,N/A,,Clear,160,2013-09-25 18:16:00
1:36 PM,70.7,50.5,49,29.94,10.0,SE,8.1,-,N/A,,Clear,140,2013-09-25 18:36:00
1:56 PM,71.1,50.2,48,29.93,10.0,ESE,10.4,17.3,N/A,,Clear,110,2013-09-25 18:56:00
2:16 PM,71.1,49.8,47,29.92,10.0,SE,12.7,17.3,N/A,,Clear,130,2013-09-25 19:16:00
2:36 PM,72.5,50.5,46,29.91,10.0,ESE,9.2,17.3,N/A,,Clear,120,2013-09-25 19:36:00
2:56 PM,72.5,50.2,45,29.90,10.0,ESE,12.7,17.3,N/A,,Clear,120,2013-09-25 19:56:00
3:16 PM,72.5,50.5,46,29.90,10.0,SE,5.8,-,N/A,,Clear,130,2013-09-25 20:16:00
3:36 PM,72.5,50.2,45,29.90,10.0,ESE,9.2,-,N/A,,Clear,110,2013-09-25 20:36:00
3:56 PM,72.5,49.6,44,29.89,10.0,ESE,10.4,-,N/A,,Clear,120,2013-09-25 20:56:00
4:16 PM,72.5,50.0,45,29.89,10.0,ESE,10.4,-,N/A,,Clear,120,2013-09-25 21:16:00
4:36 PM,71.6,50.2,47,29.88,10.0,ESE,11.5,16.1,N/A,,Clear,120,2013-09-25 21:36:00
4:56 PM,70.7,50.5,49,29.89,10.0,ESE,5.8,-,N/A,,Clear,120,2013-09-25 21:56:00
5:16 PM,72.3,50.2,46,29.88,10.0,ESE,10.4,-,N/A,,Clear,110,2013-09-25 22:16:00
5:36 PM,71.6,49.6,46,29.88,10.0,ESE,9.2,-,N/A,,Clear,110,2013-09-25 22:36:00
5:56 PM,70.7,49.6,47,29.88,10.0,East,8.1,-,N/A,,Clear,100,2013-09-25 22:56:00
6:16 PM,70.0,50.4,50,29.87,10.0,ESE,6.9,-,N/A,,Clear,110,2013-09-25 23:16:00
6:36 PM,68.9,50.9,53,29.87,10.0,East,6.9,-,N/A,,Clear,100,2013-09-25 23:36:00
6:56 PM,66.7,51.4,58,29.87,10.0,East,5.8,-,N/A,,Clear,90,2013-09-25 23:56:00
7:16 PM,65.5,52.3,62,29.87,10.0,East,5.8,-,N/A,,Clear,90,2013-09-26 00:16:00
7:36 PM,63.9,52.3,66,29.87,10.0,East,5.8,-,N/A,,Clear,90,2013-09-26 00:36:00
7:56 PM,63.0,52.0,67,29.88,10.0,East,5.8,-,N/A,,Clear,90,2013-09-26 00:56:00
8:16 PM,62.1,52.0,70,29.88,10.0,East,6.9,-,N/A,,Clear,100,2013-09-26 01:16:00
8:36 PM,62.1,51.8,69,29.88,10.0,East,8.1,-,N/A,,Clear,90,2013-09-26 01:36:00
8:56 PM,61.7,51.6,69,29.89,10.0,East,6.9,-,N/A,,Clear,100,2013-09-26 01:56:00
9:16 PM,60.8,50.9,70,29.89,10.0,East,5.8,-,N/A,,Clear,100,2013-09-26 02:16:00
9:36 PM,60.3,50.5,70,29.89,10.0,East,5.8,-,N/A,,Clear,100,2013-09-26 02:36:00
9:56 PM,59.5,50.2,71,29.89,10.0,East,5.8,-,N/A,,Clear,90,2013-09-26 02:56:00
10:16 PM,59.4,49.6,70,29.90,10.0,ESE,3.5,-,N/A,,Clear,110,2013-09-26 03:16:00
10:36 PM,58.3,49.1,71,29.91,10.0,East,5.8,-,N/A,,Clear,100,2013-09-26 03:36:00
10:56 PM,58.1,49.3,72,29.91,10.0,East,5.8,-,N/A,,Clear,100,2013-09-26 03:56:00
11:15 PM,57.7,49.3,73,29.91,10.0,East,5.8,-,N/A,,Clear,100,2013-09-26 04:15:00
11:36 PM,57.7,49.5,74,29.91,10.0,East,5.8,-,N/A,,Clear,100,2013-09-26 04:36:00
11:56 PM,58.1,49.8,74,29.91,10.0,ESE,6.9,-,N/A,,Clear,110,2013-09-26 04:56:00